| time (UTC) | temp F | wind direction | speed knots | gust knots | rain 1hr in | rain 24hr in | rain mn in | humidity % | barometer mb |
| 20260505170206 | 78 | 137 | 6.1 | 13.0 | 0.00 | 0.00 | 0.00 | 41 | 1006.1 |
| 20260505165705 | 78 | 138 | 5.2 | 13.0 | 0.00 | 0.00 | 0.00 | 41 | 1006.2 |
| 20260505165205 | 78 | 149 | 4.3 | 11.3 | 0.00 | 0.00 | 0.00 | 41 | 1006.3 |
| 20260505164705 | 78 | 124 | 5.2 | 11.3 | 0.00 | 0.00 | 0.00 | 41 | 1006.4 |
| 20260505164205 | 78 | 165 | 1.7 | 10.4 | 0.00 | 0.00 | 0.00 | 41 | 1006.4 |
| 20260505163205 | 77 | 156 | 3.5 | 8.7 | 0.00 | 0.00 | 0.00 | 42 | 1006.6 |
| 20260505162705 | 77 | 141 | 4.3 | 10.4 | 0.00 | 0.00 | 0.00 | 43 | 1006.6 |
| 20260505162205 | 77 | 147 | 5.2 | 11.3 | 0.00 | 0.00 | 0.00 | 42 | 1006.7 |
| 20260505161705 | 77 | 178 | 5.2 | 11.3 | 0.00 | 0.00 | 0.00 | 43 | 1006.8 |
| 20260505161205 | 77 | 150 | 5.2 | 11.3 | 0.00 | 0.00 | 0.00 | 42 | 1006.8 |
| 20260505160706 | 79 | 147 | 5.2 | 11.3 | 0.00 | 0.00 | 0.00 | 41 | 1006.9 |
| 20260505152706 | 77 | 123 | 2.6 | 7.8 | 0.00 | 0.00 | 0.00 | 44 | 1007.0 |
| 20260505152205 | 76 | 147 | 1.7 | 7.8 | 0.00 | 0.00 | 0.00 | 45 | 1007.1 |
| 20260505151706 | 76 | 144 | 4.3 | 7.8 | 0.00 | 0.00 | 0.00 | 46 | 1007.1 |
| 20260505151205 | 75 | 127 | 3.5 | 7.8 | 0.00 | 0.00 | 0.00 | 46 | 1007.2 |
| 20260505150706 | 75 | 137 | 4.3 | 7.8 | 0.00 | 0.00 | 0.00 | 46 | 1007.2 |
| 20260505150205 | 75 | 141 | 2.6 | 7.8 | 0.00 | 0.00 | 0.00 | 47 | 1007.3 |
| 20260505140205 | 71 | 157 | 4.3 | 10.4 | 0.00 | 0.00 | 0.00 | 52 | 1007.9 |
| 20260505130205 | 69 | 143 | 2.6 | 7.8 | 0.00 | 0.00 | 0.00 | 55 | 1007.7 |
| 20260505124705 | 68 | 152 | 2.6 | 6.1 | 0.00 | 0.00 | 0.00 | 57 | 1007.5 |
| 20260505124205 | 67 | 149 | 2.6 | 6.1 | 0.00 | 0.00 | 0.00 | 58 | 1007.5 |
| 20260505123705 | 67 | 139 | 2.6 | 7.8 | 0.00 | 0.00 | 0.00 | 58 | 1007.5 |
| 20260505123206 | 66 | 165 | 2.6 | 8.7 | 0.00 | 0.00 | 0.00 | 59 | 1007.5 |
| 20260505122705 | 66 | 180 | 4.3 | 8.7 | 0.00 | 0.00 | 0.00 | 60 | 1007.5 |
| 20260505122204 | 65 | 153 | 4.3 | 7.0 | 0.00 | 0.00 | 0.00 | 62 | 1007.5 |
| 20260505121705 | 64 | 191 | 3.5 | 6.1 | 0.00 | 0.00 | 0.00 | 63 | 1007.5 |
| 20260505121204 | 64 | 188 | 3.5 | 6.1 | 0.00 | 0.00 | 0.00 | 64 | 1007.6 |
| 20260505120706 | 63 | 214 | 2.6 | 7.0 | 0.00 | 0.00 | 0.00 | 65 | 1007.6 |
| 20260505120205 | 63 | 149 | 1.7 | 5.2 | 0.00 | 0.00 | 0.00 | 66 | 1007.6 |
| 20260505115705 | 63 | 132 | 1.7 | 4.3 | 0.00 | 0.00 | 0.00 | 66 | 1007.6 |
| 20260505115205 | 63 | 147 | 0.9 | 4.3 | 0.00 | 0.00 | 0.00 | 66 | 1007.6 |
| 20260505114705 | 62 | 132 | 1.7 | 7.0 | 0.00 | 0.00 | 0.00 | 66 | 1007.6 |
| 20260505114206 | 62 | 164 | 2.6 | 7.0 | 0.00 | 0.00 | 0.00 | 66 | 1007.5 |
| 20260505113704 | 62 | 154 | 1.7 | 6.1 | 0.00 | 0.00 | 0.00 | 66 | 1007.7 |
| 20260505113205 | 62 | 145 | 3.5 | 10.4 | 0.00 | 0.00 | 0.00 | 66 | 1007.8 |
| 20260505112205 | 62 | 204 | 2.6 | 8.7 | 0.00 | 0.00 | 0.00 | 67 | 1007.8 |
| 20260505111705 | 61 | 186 | 2.6 | 8.7 | 0.00 | 0.00 | 0.00 | 67 | 1007.8 |
| 20260505110705 | 61 | 177 | 2.6 | 5.2 | 0.00 | 0.00 | 0.00 | 67 | 1007.6 |
| 20260505110205 | 61 | 180 | 1.7 | 6.1 | 0.00 | 0.00 | 0.00 | 68 | 1007.7 |
| 20260505102205 | 60 | 167 | 0.9 | 5.2 | 0.00 | 0.00 | 0.00 | 69 | 1007.7 |
| 20260505101205 | 60 | 190 | 2.6 | 6.1 | 0.00 | 0.00 | 0.00 | 69 | 1007.6 |
| 20260505100705 | 60 | 212 | 1.7 | 6.1 | 0.00 | 0.00 | 0.00 | 69 | 1007.5 |
| 20260505100204 | 60 | 219 | 1.7 | 6.1 | 0.00 | 0.00 | 0.00 | 68 | 1007.2 |
| 20260505095705 | 60 | 134 | 2.6 | 6.1 | 0.00 | 0.00 | 0.00 | 68 | 1006.9 |
| 20260505095204 | 60 | 165 | 2.6 | 6.1 | 0.00 | 0.00 | 0.00 | 68 | 1006.9 |
| 20260505094705 | 60 | 152 | 1.7 | 4.3 | 0.00 | 0.00 | 0.00 | 68 | 1006.7 |
| 20260505094205 | 60 | 165 | 0.9 | 4.3 | 0.00 | 0.00 | 0.00 | 68 | 1006.4 |
| 20260505093705 | 60 | 119 | 1.7 | 4.3 | 0.00 | 0.00 | 0.00 | 68 | 1006.4 |
| 20260505092205 | 60 | 158 | 2.6 | 6.1 | 0.00 | 0.00 | 0.00 | 67 | 1006.5 |
| 20260505091704 | 60 | 191 | 2.6 | 6.1 | 0.00 | 0.00 | 0.00 | 67 | 1006.5 |
| 20260505091205 | 60 | 214 | 1.7 | 5.2 | 0.00 | 0.00 | 0.00 | 67 | 1006.5 |
| 20260505090704 | 60 | 153 | 2.6 | 7.8 | 0.00 | 0.00 | 0.00 | 67 | 1006.5 |
| 20260505090205 | 60 | 215 | 1.7 | 7.8 | 0.00 | 0.00 | 0.00 | 67 | 1006.5 |
| 20260505085704 | 60 | 161 | 1.7 | 5.2 | 0.00 | 0.00 | 0.00 | 67 | 1006.5 |
| 20260505085205 | 60 | 196 | 2.6 | 6.1 | 0.00 | 0.00 | 0.00 | 66 | 1006.5 |
| 20260505084705 | 60 | 165 | 1.7 | 6.1 | 0.00 | 0.00 | 0.00 | 66 | 1006.5 |
| 20260505084204 | 60 | 148 | 2.6 | 5.2 | 0.00 | 0.00 | 0.00 | 66 | 1006.6 |
| 20260505083705 | 60 | 184 | 0.9 | 5.2 | 0.00 | 0.00 | 0.00 | 66 | 1006.6 |
| 20260505083205 | 60 | 184 | 1.7 | 5.2 | 0.00 | 0.00 | 0.00 | 65 | 1006.5 |
| 20260505082705 | 60 | 198 | 1.7 | 4.3 | 0.00 | 0.00 | 0.00 | 65 | 1006.6 |
| 20260505082205 | 60 | 216 | 0.9 | 4.3 | 0.00 | 0.00 | 0.00 | 65 | 1006.5 |
| 20260505081205 | 60 | 169 | 0.9 | 4.3 | 0.00 | 0.00 | 0.00 | 65 | 1006.5 |
| 20260505080704 | 61 | 156 | 1.7 | 4.3 | 0.00 | 0.00 | 0.00 | 64 | 1006.4 |
| 20260505080206 | 61 | 142 | 1.7 | 4.3 | 0.00 | 0.00 | 0.00 | 64 | 1006.4 |
| 20260505075705 | 60 | 148 | 1.7 | 4.3 | 0.00 | 0.00 | 0.00 | 64 | 1006.5 |
| 20260505075204 | 61 | 148 | 0.9 | 5.2 | 0.00 | 0.00 | 0.00 | 64 | 1006.5 |
| 20260505074205 | 61 | 163 | 0.9 | 5.2 | 0.00 | 0.00 | 0.00 | 63 | 1006.5 |
| 20260505073704 | 61 | 149 | 1.7 | 5.2 | 0.00 | 0.00 | 0.00 | 63 | 1006.5 |
| 20260505073205 | 61 | 179 | 1.7 | 4.3 | 0.00 | 0.00 | 0.00 | 63 | 1006.5 |
| 20260505072705 | 61 | 169 | 1.7 | 4.3 | 0.00 | 0.00 | 0.00 | 63 | 1006.5 |
| 20260505071704 | 61 | 194 | 0.9 | 4.3 | 0.00 | 0.00 | 0.00 | 63 | 1006.5 |
| 20260505071204 | 61 | 192 | 0.9 | 4.3 | 0.00 | 0.00 | 0.00 | 63 | 1006.4 |
| 20260505070705 | 61 | 161 | 0.9 | 4.3 | 0.00 | 0.00 | 0.00 | 63 | 1006.5 |
| 20260505070204 | 61 | 151 | 1.7 | 4.3 | 0.00 | 0.00 | 0.00 | 63 | 1006.5 |
| 20260505065705 | 61 | 154 | 0.9 | 2.6 | 0.00 | 0.00 | 0.00 | 62 | 1006.4 |
| 20260505065204 | 61 | 153 | 1.7 | 5.2 | 0.00 | 0.00 | 0.00 | 62 | 1006.4 |
| 20260505064704 | 61 | 163 | 1.7 | 6.1 | 0.00 | 0.00 | 0.00 | 62 | 1006.4 |
| 20260505064204 | 61 | 123 | 1.7 | 6.1 | 0.00 | 0.00 | 0.00 | 62 | 1006.4 |
| 20260505063204 | 61 | 146 | 1.7 | 4.3 | 0.00 | 0.00 | 0.00 | 62 | 1006.4 |
| 20260505062704 | 61 | 181 | 0.9 | 2.6 | 0.00 | 0.00 | 0.00 | 62 | 1006.5 |
| 20260505062205 | 61 | 144 | 1.7 | 2.6 | 0.00 | 0.00 | 0.00 | 62 | 1006.5 |
| 20260505061705 | 61 | 141 | 0.0 | 2.6 | 0.00 | 0.00 | 0.00 | 61 | 1006.6 |
| 20260505060704 | 61 | 142 | 0.9 | 2.6 | 0.00 | 0.00 | 0.00 | 61 | 1006.7 |
| 20260505060204 | 61 | 140 | 0.9 | 2.6 | 0.00 | 0.00 | 0.00 | 61 | 1006.6 |
| 20260505055704 | 61 | 130 | 0.9 | 4.3 | 0.00 | 0.00 | 0.00 | 61 | 1006.6 |
| 20260505055204 | 61 | 147 | 0.9 | 4.3 | 0.00 | 0.00 | 0.00 | 61 | 1006.7 |
| 20260505054704 | 61 | 121 | 1.7 | 4.3 | 0.00 | 0.00 | 0.00 | 61 | 1006.7 |
| 20260505054204 | 61 | 150 | 0.9 | 6.1 | 0.00 | 0.00 | 0.00 | 61 | 1006.7 |
| 20260505053705 | 61 | 147 | 2.6 | 6.1 | 0.00 | 0.00 | 0.00 | 61 | 1006.6 |
| 20260505053205 | 62 | 123 | 2.6 | 7.0 | 0.00 | 0.00 | 0.00 | 60 | 1006.6 |
| 20260505052704 | 62 | 159 | 2.6 | 7.0 | 0.00 | 0.00 | 0.00 | 60 | 1006.7 |
| 20260505051705 | 62 | 146 | 2.6 | 7.8 | 0.00 | 0.00 | 0.00 | 60 | 1006.8 |
| 20260505051205 | 62 | 161 | 2.6 | 7.8 | 0.00 | 0.00 | 0.00 | 59 | 1006.8 |
| 20260505050704 | 62 | 133 | 2.6 | 8.7 | 0.00 | 0.00 | 0.00 | 59 | 1006.8 |
| 20260505050204 | 62 | 157 | 3.5 | 8.7 | 0.00 | 0.00 | 0.00 | 59 | 1006.9 |
| 20260505041707 | 62 | 165 | 3.5 | 8.7 | 0.00 | 0.00 | 0.00 | 57 | 1007.0 |
| 20260505040706 | 62 | 150 | 2.6 | 7.0 | 0.00 | 0.00 | 0.00 | 57 | 1007.1 |
| 20260505040207 | 62 | 162 | 2.6 | 7.8 | 0.00 | 0.00 | 0.00 | 56 | 1007.1 |
| 20260505035708 | 63 | 134 | 3.5 | 10.4 | 0.00 | 0.00 | 0.00 | 56 | 1007.1 |
| 20260505035208 | 63 | 145 | 4.3 | 10.4 | 0.00 | 0.00 | 0.00 | 56 | 1007.2 |
| 20260505034706 | 63 | 146 | 2.6 | 8.7 | 0.00 | 0.00 | 0.00 | 55 | 1007.1 |
| 20260505034207 | 63 | 164 | 4.3 | 8.7 | 0.00 | 0.00 | 0.00 | 55 | 1007.2 |
| 20260505033707 | 63 | 148 | 2.6 | 7.0 | 0.00 | 0.00 | 0.00 | 55 | 1007.1 |
| 20260505033207 | 63 | 159 | 3.5 | 7.8 | 0.00 | 0.00 | 0.00 | 55 | 1007.1 |
| 20260505032206 | 63 | 150 | 1.7 | 7.8 | 0.00 | 0.00 | 0.00 | 54 | 1007.2 |
| 20260505031707 | 63 | 161 | 3.5 | 10.4 | 0.00 | 0.00 | 0.00 | 53 | 1007.2 |
| 20260505030707 | 63 | 148 | 3.5 | 10.4 | 0.00 | 0.00 | 0.00 | 52 | 1007.3 |
| 20260505030206 | 64 | 153 | 2.6 | 7.8 | 0.00 | 0.00 | 0.00 | 51 | 1007.4 |
| 20260505025706 | 64 | 137 | 2.6 | 10.4 | 0.00 | 0.00 | 0.00 | 51 | 1007.3 |
| 20260505024206 | 64 | 109 | 5.2 | 8.7 | 0.00 | 0.00 | 0.00 | 51 | 1007.3 |
| 20260505023706 | 64 | 150 | 3.5 | 8.7 | 0.00 | 0.00 | 0.00 | 51 | 1007.2 |
| 20260505023206 | 64 | 67 | 4.3 | 10.4 | 0.00 | 0.00 | 0.00 | 51 | 1007.4 |
| 20260505022706 | 64 | 123 | 3.5 | 10.4 | 0.00 | 0.00 | 0.00 | 50 | 1007.4 |
| 20260505022207 | 64 | 152 | 3.5 | 8.7 | 0.00 | 0.00 | 0.00 | 50 | 1007.4 |
| 20260505021207 | 65 | 163 | 2.6 | 7.8 | 0.00 | 0.00 | 0.00 | 49 | 1007.4 |
| 20260505020707 | 65 | 188 | 2.6 | 7.8 | 0.00 | 0.00 | 0.00 | 49 | 1007.4 |
| 20260505020207 | 65 | 161 | 3.5 | 10.4 | 0.00 | 0.00 | 0.00 | 49 | 1007.4 |
| 20260505015706 | 65 | 131 | 4.3 | 10.4 | 0.00 | 0.00 | 0.00 | 49 | 1007.3 |
| 20260505015207 | 65 | 165 | 3.5 | 7.0 | 0.00 | 0.00 | 0.00 | 49 | 1007.3 |
| 20260505014706 | 65 | 157 | 2.6 | 7.8 | 0.00 | 0.00 | 0.00 | 49 | 1007.3 |
| 20260505013706 | 66 | 144 | 2.6 | 8.7 | 0.00 | 0.00 | 0.00 | 48 | 1007.3 |
| 20260505013206 | 66 | 157 | 3.5 | 8.7 | 0.00 | 0.00 | 0.00 | 48 | 1007.3 |
| 20260505012706 | 66 | 153 | 4.3 | 8.7 | 0.00 | 0.00 | 0.00 | 48 | 1007.2 |
| 20260505012207 | 66 | 144 | 2.6 | 7.0 | 0.00 | 0.00 | 0.00 | 48 | 1007.1 |
| 20260505011706 | 66 | 83 | 2.6 | 8.7 | 0.00 | 0.00 | 0.00 | 49 | 1007.2 |
| 20260505011206 | 66 | 160 | 4.3 | 8.7 | 0.00 | 0.00 | 0.00 | 49 | 1007.0 |
| 20260505010706 | 66 | 253 | 3.5 | 10.4 | 0.00 | 0.00 | 0.00 | 49 | 1007.0 |
| 20260505010207 | 66 | 160 | 4.3 | 10.4 | 0.00 | 0.00 | 0.00 | 49 | 1007.0 |
| 20260505005706 | 65 | 140 | 4.3 | 11.3 | 0.00 | 0.00 | 0.00 | 50 | 1006.9 |
| 20260505005206 | 66 | 153 | 4.3 | 11.3 | 0.00 | 0.00 | 0.00 | 51 | 1006.7 |
| 20260505004706 | 66 | 146 | 4.3 | 10.4 | 0.00 | 0.00 | 0.00 | 51 | 1006.7 |
| 20260505004206 | 66 | 119 | 5.2 | 8.7 | 0.00 | 0.00 | 0.00 | 51 | 1006.7 |
| 20260505003206 | 66 | 136 | 4.3 | 10.4 | 0.00 | 0.00 | 0.00 | 50 | 1006.6 |
| 20260505002707 | 66 | 146 | 4.3 | 10.4 | 0.00 | 0.00 | 0.00 | 51 | 1006.5 |
| 20260505002206 | 66 | 150 | 4.3 | 11.3 | 0.00 | 0.00 | 0.00 | 50 | 1006.4 |
| 20260505001706 | 66 | 152 | 5.2 | 11.3 | 0.00 | 0.00 | 0.00 | 50 | 1006.4 |
| 20260505000706 | 67 | 137 | 5.2 | 8.7 | 0.00 | 0.00 | 0.00 | 48 | 1006.2 |
| 20260505000206 | 67 | 133 | 4.3 | 10.4 | 0.00 | 0.00 | 0.00 | 48 | 1006.1 |
| 20260504235706 | 67 | 149 | 3.5 | 10.4 | 0.00 | 0.00 | 0.00 | 47 | 1006.0 |
| 20260504235206 | 67 | 137 | 3.5 | 10.4 | 0.00 | 0.00 | 0.00 | 46 | 1006.0 |
| 20260504234206 | 68 | 163 | 2.6 | 8.7 | 0.00 | 0.00 | 0.00 | 45 | 1005.8 |
| 20260504233706 | 68 | 128 | 3.5 | 8.7 | 0.00 | 0.00 | 0.00 | 45 | 1005.7 |
| 20260504232706 | 68 | 133 | 4.3 | 10.4 | 0.00 | 0.00 | 0.00 | 44 | 1005.6 |
| 20260504232206 | 69 | 165 | 5.2 | 10.4 | 0.00 | 0.00 | 0.00 | 42 | 1005.5 |
| 20260504231706 | 69 | 148 | 4.3 | 8.7 | 0.00 | 0.00 | 0.00 | 42 | 1005.6 |
| 20260504230206 | 69 | 150 | 5.2 | 10.4 | 0.00 | 0.00 | 0.00 | 41 | 1005.3 |
| 20260504225706 | 70 | 218 | 4.3 | 10.4 | 0.00 | 0.00 | 0.00 | 40 | 1005.3 |
| 20260504225206 | 70 | 142 | 4.3 | 7.8 | 0.00 | 0.00 | 0.00 | 39 | 1005.3 |
| 20260504223705 | 71 | 142 | 4.3 | 10.4 | 0.00 | 0.00 | 0.00 | 38 | 1005.4 |
| 20260504223206 | 71 | 165 | 4.3 | 8.7 | 0.00 | 0.00 | 0.00 | 38 | 1005.4 |
| 20260504222706 | 71 | 155 | 5.2 | 8.7 | 0.00 | 0.00 | 0.00 | 37 | 1005.4 |
| 20260504222206 | 72 | 90 | 2.6 | 8.7 | 0.00 | 0.00 | 0.00 | 37 | 1005.4 |
| 20260504221705 | 72 | 153 | 3.5 | 8.7 | 0.00 | 0.00 | 0.00 | 35 | 1005.4 |
| 20260504221206 | 73 | 124 | 3.5 | 10.4 | 0.00 | 0.00 | 0.00 | 35 | 1005.4 |
| 20260504220706 | 73 | 143 | 5.2 | 10.4 | 0.00 | 0.00 | 0.00 | 34 | 1005.4 |
| 20260504220206 | 74 | 170 | 2.6 | 8.7 | 0.00 | 0.00 | 0.00 | 34 | 1005.5 |
| 20260504215706 | 74 | 152 | 1.7 | 10.4 | 0.00 | 0.00 | 0.00 | 33 | 1005.5 |
| 20260504215206 | 74 | 154 | 6.1 | 11.3 | 0.00 | 0.00 | 0.00 | 28 | 1005.5 |
| 20260504214706 | 75 | 179 | 3.5 | 11.3 | 0.00 | 0.00 | 0.00 | 28 | 1005.6 |
| 20260504214206 | 75 | 170 | 4.3 | 10.4 | 0.00 | 0.00 | 0.00 | 28 | 1005.5 |
| 20260504212706 | 75 | 232 | 4.3 | 11.3 | 0.00 | 0.00 | 0.00 | 27 | 1005.6 |
| 20260504212206 | 75 | 275 | 4.3 | 10.4 | 0.00 | 0.00 | 0.00 | 27 | 1005.7 |
| 20260504211705 | 75 | 141 | 4.3 | 10.4 | 0.00 | 0.00 | 0.00 | 28 | 1005.8 |
| 20260504211206 | 75 | 213 | 3.5 | 11.3 | 0.00 | 0.00 | 0.00 | 28 | 1005.7 |
| 20260504210706 | 74 | 173 | 4.3 | 11.3 | 0.00 | 0.00 | 0.00 | 28 | 1005.7 |
| 20260504210206 | 75 | 267 | 6.1 | 11.3 | 0.00 | 0.00 | 0.00 | 28 | 1005.8 |
| 20260504205707 | 75 | 201 | 2.6 | 8.7 | 0.00 | 0.00 | 0.00 | 28 | 1005.6 |
| 20260504205206 | 75 | 168 | 5.2 | 10.4 | 0.00 | 0.00 | 0.00 | 28 | 1005.6 |
| 20260504204206 | 76 | 86 | 4.3 | 10.4 | 0.00 | 0.00 | 0.00 | 27 | 1005.6 |
| 20260504203706 | 76 | 216 | 3.5 | 10.4 | 0.00 | 0.00 | 0.00 | 28 | 1005.7 |
| 20260504203206 | 76 | 201 | 4.3 | 8.7 | 0.00 | 0.00 | 0.00 | 27 | 1005.7 |
| 20260504202706 | 75 | 68 | 2.6 | 10.4 | 0.00 | 0.00 | 0.00 | 28 | 1005.7 |
| 20260504202206 | 75 | 135 | 5.2 | 11.3 | 0.00 | 0.00 | 0.00 | 28 | 1005.6 |
| 20260504201706 | 75 | 148 | 4.3 | 11.3 | 0.00 | 0.00 | 0.00 | 28 | 1005.7 |
| 20260504201206 | 75 | 185 | 4.3 | 11.3 | 0.00 | 0.00 | 0.00 | 27 | 1005.8 |
| 20260504200206 | 75 | 291 | 2.6 | 13.0 | 0.00 | 0.00 | 0.00 | 27 | 1005.8 |
| 20260504195706 | 75 | 224 | 4.3 | 13.0 | 0.00 | 0.00 | 0.00 | 28 | 1005.9 |
| 20260504195205 | 75 | 187 | 6.1 | 13.0 | 0.00 | 0.00 | 0.00 | 27 | 1006.0 |
| 20260504194706 | 75 | 167 | 5.2 | 17.4 | 0.00 | 0.00 | 0.00 | 27 | 1005.9 |
| 20260504194206 | 75 | 168 | 4.3 | 17.4 | 0.00 | 0.00 | 0.00 | 27 | 1006.0 |
| 20260504193706 | 75 | 186 | 5.2 | 11.3 | 0.00 | 0.00 | 0.00 | 27 | 1006.0 |
| 20260504193206 | 75 | 165 | 5.2 | 11.3 | 0.00 | 0.00 | 0.00 | 27 | 1005.9 |
| 20260504192705 | 75 | 187 | 3.5 | 7.0 | 0.00 | 0.00 | 0.00 | 28 | 1006.0 |
| 20260504192206 | 75 | 166 | 2.6 | 8.7 | 0.00 | 0.00 | 0.00 | 28 | 1006.0 |
| 20260504191705 | 74 | 94 | 3.5 | 12.2 | 0.00 | 0.00 | 0.00 | 28 | 1006.2 |
| 20260504190706 | 74 | 178 | 4.3 | 11.3 | 0.00 | 0.00 | 0.00 | 28 | 1006.3 |
| 20260504190205 | 74 | 142 | 4.3 | 13.0 | 0.00 | 0.00 | 0.00 | 28 | 1006.5 |
| 20260504185705 | 74 | 218 | 4.3 | 13.0 | 0.00 | 0.00 | 0.00 | 28 | 1006.6 |
| 20260504185206 | 74 | 182 | 5.2 | 13.0 | 0.00 | 0.00 | 0.00 | 28 | 1006.8 |
| 20260504184707 | 74 | 232 | 5.2 | 13.0 | 0.00 | 0.00 | 0.00 | 28 | 1006.9 |
| 20260504184207 | 74 | 190 | 5.2 | 13.0 | 0.00 | 0.00 | 0.00 | 28 | 1006.8 |
| 20260504183705 | 74 | 181 | 5.2 | 13.0 | 0.00 | 0.00 | 0.00 | 28 | 1006.9 |
| 20260504183205 | 74 | 150 | 5.2 | 13.0 | 0.00 | 0.00 | 0.00 | 28 | 1006.9 |
| 20260504182706 | 74 | 199 | 4.3 | 13.0 | 0.00 | 0.00 | 0.00 | 28 | 1007.0 |
| 20260504181705 | 73 | 209 | 3.5 | 12.2 | 0.00 | 0.00 | 0.00 | 28 | 1007.1 |
| 20260504181206 | 73 | 209 | 4.3 | 14.8 | 0.00 | 0.00 | 0.00 | 29 | 1007.2 |
| 20260504180706 | 73 | 234 | 4.3 | 17.4 | 0.00 | 0.00 | 0.00 | 29 | 1007.2 |
| 20260504180206 | 72 | 270 | 4.3 | 17.4 | 0.00 | 0.00 | 0.00 | 29 | 1007.4 |
| 20260504175705 | 72 | 136 | 7.8 | 17.4 | 0.00 | 0.00 | 0.00 | 29 | 1007.4 |
| 20260504175206 | 72 | 167 | 4.3 | 13.0 | 0.00 | 0.00 | 0.00 | 29 | 1007.6 |
| 20260504174706 | 72 | 251 | 5.2 | 13.0 | 0.00 | 0.00 | 0.00 | 29 | 1007.7 |
| 20260504174206 | 72 | 201 | 5.2 | 13.0 | 0.00 | 0.00 | 0.00 | 30 | 1007.6 |
| 20260504173706 | 72 | 165 | 6.1 | 11.3 | 0.00 | 0.00 | 0.00 | 29 | 1007.6 |
| 20260504173206 | 72 | 237 | 4.3 | 11.3 | 0.00 | 0.00 | 0.00 | 29 | 1007.6 |
| 20260504172705 | 72 | 259 | 5.2 | 15.6 | 0.00 | 0.00 | 0.00 | 29 | 1007.9 |
| 20260504172206 | 71 | 210 | 3.5 | 15.6 | 0.00 | 0.00 | 0.00 | 30 | 1007.7 |
| 20260504171206 | 71 | 175 | 7.0 | 15.6 | 0.00 | 0.00 | 0.00 | 30 | 1007.9 |
| 20260504170706 | 71 | 181 | 4.3 | 17.4 | 0.00 | 0.00 | 0.00 | 30 | 1008.1 |